Date String (YYYY-MM-DD hh:mm:ss) UTC,Instrument flags,absolute air pressure of the measurement (hPa),sample flow rate (lpm),inlet stack bypass flow (lpm),air temperature of the measurement (°C),ambient temperature measured by the external sensor (°C),aerosol sample conditioner tube jacket temperature (°C),OPC LED temperature (°C),internal box temperature (°C),relative humidity of the measurement (%),span deviation,mass concentration of particles derived from Lorenz-Mie calculation of OPC scattering (μg/m³),mass concentration of particles derived from Lorenz-Mie calculation of OPC scattering (μg/m³),mass concentration of particles derived from Lorenz-Mie calculation of OPC scattering (μg/m³)
DateTimeUTC,F1_M11,P_M11,Q1_M11,Q2_M11,T1_M11,T2_M11,T3_M11,T4_M11,T5_M11,U1_M11,ZSPAN_M11,X0_M11,X2_M11,X1_M11
2024-05-10 17:00:00,SystemResetWarning,0836.7,5.01,000.00,025.4,024.9,000.0,033.6,027.3,020.8,0000.0,0007.83,0004.37,0004.09
2024-05-10 17:01:00,SystemResetWarning,0836.7,5.00,000.00,025.4,025.0,000.0,033.6,027.3,021.1,0000.0,0008.46,0004.42,0004.09
2024-05-10 17:02:00,SystemResetWarning,0836.6,4.99,000.00,025.5,025.0,000.0,033.7,027.4,021.0,0000.0,0009.32,0004.39,0004.06
2024-05-10 17:03:00,SystemResetWarning,0836.7,4.99,000.00,025.5,025.1,000.0,033.7,027.4,021.4,0000.0,0009.24,0004.33,0004.04
2024-05-10 17:04:00,SystemResetWarning,0836.7,5.01,000.00,025.5,025.1,000.0,033.7,027.4,021.2,0000.0,0009.17,0004.31,0004.02
2024-05-10 17:05:00,SystemResetWarning,0836.7,5.02,000.00,025.6,025.2,000.0,033.7,027.4,021.2,0000.0,0009.21,0004.29,0003.99
2024-05-10 17:06:00,SystemResetWarning,0836.6,4.99,000.00,025.6,025.2,000.0,033.8,027.4,022.7,0000.0,0009.04,0004.25,0003.95
2024-05-10 17:07:00,SystemResetWarning,0836.6,4.99,000.00,025.7,025.2,000.0,033.8,027.5,022.3,0000.0,0008.97,0004.21,0003.91
2024-05-10 17:08:00,SystemResetWarning,0836.6,5.01,000.00,025.7,025.3,000.0,033.8,027.5,021.6,0000.0,0008.59,0004.18,0003.88
2024-05-10 17:09:00,SystemResetWarning,0836.6,5.01,000.00,025.7,025.3,000.0,033.8,027.5,020.7,0000.0,0008.72,0004.16,0003.86
2024-05-10 17:10:00,SystemResetWarning,0836.6,5.00,000.00,025.8,025.4,000.0,033.9,027.6,020.7,0000.0,0009.37,0004.19,0003.87
2024-05-10 17:11:00,SystemResetWarning,0836.6,5.00,000.00,025.8,025.4,000.0,033.9,027.6,021.0,0000.0,0009.42,0004.20,0003.86
2024-05-10 17:12:00,SystemResetWarning,0836.6,4.99,000.00,025.8,025.4,000.0,033.9,027.6,020.6,0000.0,0009.04,0004.16,0003.84
2024-05-10 17:13:00,SystemResetWarning,0836.6,5.01,000.00,025.9,025.5,000.0,034.0,027.7,020.9,0000.0,0008.10,0004.14,0003.84
2024-05-10 17:14:00,SystemResetWarning,0836.6,5.01,000.00,025.9,025.5,000.0,034.0,027.7,020.5,0000.0,0008.03,0004.18,0003.84
2024-05-10 17:15:00,SystemResetWarning,0836.6,4.99,000.00,025.8,024.5,000.0,034.1,027.2,021.1,0000.0,0008.01,0004.18,0003.84
2024-05-10 17:16:00,SystemResetWarning,0836.5,4.99,000.00,025.4,022.1,000.0,034.1,026.0,021.3,0000.0,0007.96,0004.18,0003.85
2024-05-10 17:17:00,SystemResetWarning,0836.5,5.01,000.00,025.0,021.6,000.0,034.1,025.6,021.8,0000.0,0007.97,0004.20,0003.89
2024-05-10 17:18:00,SystemResetWarning,0836.5,5.00,000.00,024.9,022.0,000.0,033.9,025.7,021.6,0000.0,0008.24,0004.29,0003.94
2024-05-10 17:19:00,SystemResetWarning,0836.5,5.00,000.00,024.8,022.4,000.0,033.7,026.0,021.9,0000.0,0008.98,0004.34,0003.98
2024-05-10 17:20:00,SystemResetWarning,0836.5,5.01,000.00,024.8,022.8,000.0,033.6,026.2,021.4,0000.0,0008.53,0004.37,0004.02
2024-05-10 17:21:00,SystemResetWarning,0836.5,5.00,000.00,024.9,023.2,000.0,033.5,026.4,021.9,0000.0,0008.08,0004.39,0004.04
2024-05-10 17:22:00,SystemResetWarning,0836.5,5.00,000.00,024.9,023.5,000.0,033.5,026.5,022.1,0000.0,0008.28,0004.43,0004.07
2024-05-10 17:23:00,SystemResetWarning,0836.6,5.00,000.00,025.0,023.8,000.0,033.4,026.7,021.2,0000.0,0008.48,0004.46,0004.09
2024-05-10 17:24:00,SystemResetWarning,0836.5,5.00,000.00,025.0,024.0,000.0,033.4,026.7,021.2,0000.0,0008.34,0004.46,0004.10
2024-05-10 17:25:00,SystemResetWarning,0836.5,5.00,000.00,025.1,024.2,000.0,033.4,026.8,021.9,0000.0,0008.39,0004.44,0004.10
2024-05-10 17:26:00,SystemResetWarning,0836.5,4.99,000.00,025.1,024.3,000.0,033.4,026.9,021.7,0000.0,0008.48,0004.44,0004.11
2024-05-10 17:27:00,SystemResetWarning,0836.5,5.00,000.00,025.1,024.5,000.0,033.4,026.9,021.6,0000.0,0008.50,0004.44,0004.12
2024-05-10 17:28:00,SystemResetWarning,0836.5,5.00,000.00,025.2,024.6,000.0,033.4,027.0,021.8,0000.0,0008.50,0004.43,0004.10
2024-05-10 17:29:00,SystemResetWarning,0836.5,5.00,000.00,025.3,024.7,000.0,033.4,027.1,021.7,0000.0,0008.41,0004.36,0004.06
2024-05-10 17:30:00,SystemResetWarning,0836.5,5.01,000.00,025.3,024.8,000.0,033.5,027.1,020.9,0000.0,0007.65,0004.30,0004.01
2024-05-10 17:31:00,SystemResetWarning,0836.5,5.00,000.00,025.3,024.9,000.0,033.5,027.2,020.9,0000.0,0007.94,0004.30,0003.97
2024-05-10 17:32:00,SystemResetWarning,0836.5,5.00,000.00,025.4,024.9,000.0,033.5,027.2,022.0,0000.0,0007.80,0004.27,0003.94
2024-05-10 17:33:00,SystemResetWarning,0836.5,5.00,000.00,025.4,025.0,000.0,033.6,027.3,021.5,0000.0,0007.65,0004.24,0003.92
2024-05-10 17:34:00,SystemResetWarning,0836.5,5.00,000.00,025.5,025.1,000.0,033.6,027.3,021.0,0000.0,0007.81,0004.24,0003.93
2024-05-10 17:35:00,SystemResetWarning,0836.5,5.00,000.00,025.5,025.1,000.0,033.6,027.4,020.8,0000.0,0008.04,0004.28,0003.97
2024-05-10 17:36:00,SystemResetWarning,0836.5,5.00,000.00,025.6,025.2,000.0,033.7,027.4,020.6,0000.0,0008.08,0004.33,0004.00
2024-05-10 17:37:00,SystemResetWarning,0836.5,5.00,000.00,025.6,025.2,000.0,033.7,027.4,020.5,0000.0,0008.16,0004.35,0004.01
2024-05-10 17:38:00,SystemResetWarning,0836.5,5.00,000.00,025.6,025.3,000.0,033.7,027.5,020.3,0000.0,0008.77,0004.37,0004.01
2024-05-10 17:39:00,SystemResetWarning,0836.5,5.00,000.00,025.7,025.1,000.0,033.8,027.4,020.0,0000.0,0008.95,0004.35,0004.00
2024-05-10 17:40:00,SystemResetWarning,0836.4,4.99,000.00,025.4,023.1,000.0,033.9,026.3,020.3,0000.0,0009.38,0004.37,0004.00
2024-05-10 17:41:00,SystemResetWarning,0836.4,5.02,000.00,025.1,022.4,000.0,033.9,026.0,020.8,0000.0,0009.29,0004.34,0004.01
2024-05-10 17:42:00,SystemResetWarning,0836.4,5.00,000.00,025.0,022.7,000.0,033.7,026.1,020.9,0000.0,0009.49,0004.32,0004.02
2024-05-10 17:43:00,SystemResetWarning,0836.4,4.99,000.00,024.9,023.0,000.0,033.6,026.3,021.3,0000.0,0010.36,0004.30,0004.02
2024-05-10 17:44:00,SystemResetWarning,0836.5,5.00,000.00,025.0,023.3,000.0,033.5,026.4,020.7,0000.0,0010.57,0004.27,0004.00
2024-05-10 17:45:00,SystemResetWarning,0836.5,5.00,000.00,025.0,023.6,000.0,033.5,026.6,020.8,0000.0,0010.63,0004.24,0003.97
2024-05-10 17:46:00,SystemResetWarning,0836.5,5.01,000.00,025.0,023.9,000.0,033.5,026.7,020.2,0000.0,0010.41,0004.22,0003.93
2024-05-10 17:47:00,SystemResetWarning,0836.5,5.00,000.00,025.1,024.1,000.0,033.4,026.8,020.1,0000.0,0010.34,0004.17,0003.88
2024-05-10 17:48:00,SystemResetWarning,0836.5,5.00,000.00,025.1,024.2,000.0,033.5,026.8,020.0,0000.0,0010.09,0004.12,0003.83
2024-05-10 17:49:00,SystemResetWarning,0836.5,5.00,000.00,025.1,024.4,000.0,033.5,026.9,020.3,0000.0,0009.50,0004.06,0003.78
2024-05-10 17:50:00,SystemResetWarning,0836.5,5.00,000.00,025.2,024.5,000.0,033.5,027.0,020.2,0000.0,0009.23,0004.02,0003.75
2024-05-10 17:51:00,SystemResetWarning,0836.4,5.00,000.00,025.2,024.6,000.0,033.5,027.0,019.8,0000.0,0008.63,0003.95,0003.70
2024-05-10 17:52:00,SystemResetWarning,0836.4,5.01,000.00,025.3,024.7,000.0,033.5,027.1,019.8,0000.0,0008.56,0003.92,0003.66
2024-05-10 17:53:00,SystemResetWarning,0836.5,5.01,000.00,025.3,024.8,000.0,033.5,027.2,019.9,0000.0,0008.25,0003.87,0003.59
2024-05-10 17:54:00,SystemResetWarning,0836.4,5.00,000.00,025.3,024.9,000.0,033.6,027.2,020.1,0000.0,0006.95,0003.83,0003.55
2024-05-10 17:55:00,SystemResetWarning,0836.4,5.00,000.00,025.4,024.9,000.0,033.6,027.3,020.4,0000.0,0006.64,0003.86,0003.56
2024-05-10 17:56:00,SystemResetWarning,0836.4,4.99,000.00,025.4,025.0,000.0,033.6,027.3,020.6,0000.0,0006.62,0003.89,0003.59
2024-05-10 17:57:00,SystemResetWarning,0836.5,4.99,000.00,025.5,025.1,000.0,033.6,027.3,021.4,0000.0,0006.47,0003.91,0003.60
2024-05-10 17:58:00,SystemResetWarning,0836.4,5.00,000.00,025.5,025.1,000.0,033.7,027.4,021.0,0000.0,0006.82,0004.01,0003.68
2024-05-10 17:59:00,SystemResetWarning,0836.4,4.99,000.00,025.5,024.5,000.0,033.7,027.0,021.2,0000.0,0007.31,0004.19,0003.82
